Weather History for Dyersburg, TN

Change the Weather History Date:

Monday, April 8, 2013

  Actual Average Record
Temperature  
Mean Temperature 68 °F -  
Max Temperature 78 °F 65 °F 82 °F (2011)
Min Temperature 57 °F 47 °F 24 °F (2007)
Cooling Degree Days 2    
Growing Degree Days 18 (Base 50)    
Moisture  
Dew Point 50 °F    
Average Humidity 53    
Maximum Humidity 64    
Minimum Humidity 41    
Precipitation  
Precipitation 0.00 in - - ()
Sea Level Pressure  
Sea Level Pressure 29.93 in    
Wind  
Wind Speed 8 mph (South)    
Max Wind Speed 16 mph    
Max Gust Speed 29 mph    
Visibility 10 miles    
Events      
Averages and records for this station are not official NWS values.
T = Trace of Precipitation, MM = Missing Value Source: NWS Daily Summary

Daily Weather History Graph

Daily Weather History Graph

Search for Another Location

Airport:

Trip Planner

Search our weather history database for the weather conditions in past years. The results will help you decide how hot, cold, wet, or windy it might be!

Date:

Astronomy

Apr. 08, 2013 Rise Set
Actual Time 6:33 AM CDT 7:25 PM CDT
Civil Twilight 6:07 AM CDT 7:51 PM CDT
Nautical Twilight 5:36 AM CDT 8:22 PM CDT
Astronomical Twilight 5:05 AM CDT 8:54 PM CDT
Moon 5:21 AM CDT (4/8) 6:01 PM CDT (4/8)
Length of Visible Light 13h 44m
Length of Day
12h 51m
Waning Crescent, 3% of the Moon is Illuminated
Apr 8
Waning Crescent
Apr 10
New
Apr 18
First Quarter
Apr 25
Full
May 2
Last Quarter

Hourly Weather History & Observations

Time (CDT) Temp. Dew Point Humidity Pressure Visibility Wind Dir Wind Speed Gust Speed Precip Events Conditions
12:15 AM 60.8 °F 44.6 °F 55% 29.93 in 10.0 mi SSE 5.8 mph - N/A   Clear
12:35 AM 59.0 °F 44.6 °F 59% 29.94 in 10.0 mi SE 5.8 mph - N/A   Partly Cloudy
12:55 AM 59.0 °F 44.6 °F 59% 29.94 in 10.0 mi SE 6.9 mph - N/A   Mostly Cloudy
1:15 AM 57.2 °F 44.6 °F 63% 29.93 in 10.0 mi SE 6.9 mph - N/A   Mostly Cloudy
1:35 AM 60.8 °F 44.6 °F 55% 29.93 in 10.0 mi SE 6.9 mph - N/A   Overcast
1:55 AM 60.8 °F 44.6 °F 55% 29.93 in 10.0 mi SSE 8.1 mph - N/A   Overcast
2:15 AM 60.8 °F 44.6 °F 55% 29.93 in 10.0 mi SSE 6.9 mph - N/A   Overcast
2:35 AM 60.8 °F 46.4 °F 59% 29.92 in 10.0 mi SSE 8.1 mph - N/A   Overcast
2:55 AM 60.8 °F 46.4 °F 59% 29.91 in 10.0 mi SSE 9.2 mph - N/A   Overcast
3:15 AM 60.8 °F 46.4 °F 59% 29.91 in 10.0 mi South 5.8 mph - N/A   Overcast
3:35 AM 60.8 °F 46.4 °F 59% 29.91 in 10.0 mi South 6.9 mph - N/A   Overcast
3:55 AM 60.8 °F 46.4 °F 59% 29.90 in 10.0 mi South 6.9 mph - N/A   Overcast
4:15 AM 62.6 °F 46.4 °F 55% 29.90 in 10.0 mi South 6.9 mph - N/A   Overcast
4:35 AM 62.6 °F 46.4 °F 55% 29.90 in 10.0 mi South 6.9 mph - N/A   Overcast
4:55 AM 62.6 °F 46.4 °F 55% 29.90 in 10.0 mi South 9.2 mph - N/A   Overcast
5:15 AM 62.6 °F 46.4 °F 55% 29.91 in 10.0 mi South 9.2 mph - N/A   Overcast
5:35 AM 62.6 °F 46.4 °F 55% 29.91 in 10.0 mi South 6.9 mph - N/A   Overcast
5:55 AM 62.6 °F 48.2 °F 59% 29.92 in 10.0 mi South 8.1 mph - N/A   Overcast
6:15 AM 62.6 °F 48.2 °F 59% 29.93 in 10.0 mi South 9.2 mph - N/A   Overcast
6:35 AM 62.6 °F 48.2 °F 59% 29.94 in 10.0 mi South 9.2 mph - N/A   Mostly Cloudy
6:55 AM 62.6 °F 48.2 °F 59% 29.95 in 10.0 mi South 6.9 mph - N/A   Mostly Cloudy
7:15 AM 62.6 °F 48.2 °F 59% 29.96 in 10.0 mi SSE 6.9 mph - N/A   Overcast
7:35 AM 62.6 °F 48.2 °F 59% 29.96 in 10.0 mi South 6.9 mph - N/A   Overcast
7:55 AM 62.6 °F 48.2 °F 59% 29.98 in 10.0 mi South 4.6 mph - N/A   Overcast
8:15 AM 62.6 °F 48.2 °F 59% 29.98 in 10.0 mi SSE 8.1 mph - N/A   Overcast
8:35 AM 62.6 °F 50.0 °F 63% 29.97 in 10.0 mi SSE 9.2 mph - N/A   Overcast
8:55 AM 62.6 °F 50.0 °F 63% 29.98 in 10.0 mi South 10.4 mph - N/A   Overcast
9:15 AM 64.4 °F 51.8 °F 64% 29.97 in 10.0 mi SSE 11.5 mph 17.3 mph N/A   Overcast
9:35 AM 64.4 °F 51.8 °F 64% 29.97 in 10.0 mi South 10.4 mph - N/A   Overcast
9:55 AM 66.2 °F 51.8 °F 60% 29.97 in 10.0 mi South 9.2 mph 17.3 mph N/A   Mostly Cloudy
10:15 AM 66.2 °F 51.8 °F 60% 29.98 in 10.0 mi SSW 9.2 mph 19.6 mph N/A   Scattered Clouds
10:35 AM 68.0 °F 53.6 °F 60% 29.98 in 10.0 mi South 11.5 mph 20.7 mph N/A   Partly Cloudy
10:55 AM 69.8 °F 53.6 °F 56% 29.97 in 10.0 mi South 10.4 mph 20.7 mph N/A   Scattered Clouds
11:15 AM 69.8 °F 53.6 °F 56% 29.98 in 10.0 mi SSW 13.8 mph 21.9 mph N/A   Mostly Cloudy
11:35 AM 71.6 °F 53.6 °F 53% 29.97 in 10.0 mi SSW 9.2 mph 23.0 mph N/A   Mostly Cloudy
11:55 AM 71.6 °F 51.8 °F 50% 29.97 in 10.0 mi SSW 10.4 mph 25.3 mph N/A   Overcast
12:15 PM 71.6 °F 51.8 °F 50% 29.96 in 10.0 mi South 16.1 mph 23.0 mph N/A   Overcast
12:35 PM 71.6 °F 51.8 °F 50% 29.95 in 10.0 mi South 15.0 mph 21.9 mph N/A   Overcast
12:55 PM 71.6 °F 51.8 °F 50% 29.95 in 10.0 mi SSW 10.4 mph 24.2 mph N/A   Overcast
1:15 PM 73.4 °F 51.8 °F 47% 29.94 in 10.0 mi SSW 16.1 mph 24.2 mph N/A   Overcast
1:35 PM 75.2 °F 51.8 °F 44% 29.93 in 10.0 mi SSW 13.8 mph 19.6 mph N/A   Mostly Cloudy
1:55 PM 73.4 °F 51.8 °F 47% 29.92 in 10.0 mi SSW 13.8 mph 28.8 mph N/A   Mostly Cloudy
2:15 PM 75.2 °F 53.6 °F 47% 29.92 in 10.0 mi SSW 11.5 mph 23.0 mph N/A   Mostly Cloudy
2:35 PM 75.2 °F 53.6 °F 47% 29.92 in 10.0 mi SSW 15.0 mph 24.2 mph N/A   Mostly Cloudy
2:55 PM 75.2 °F 51.8 °F 44% 29.91 in 10.0 mi SW 16.1 mph 24.2 mph N/A   Overcast
3:15 PM 73.4 °F 51.8 °F 47% 29.90 in 10.0 mi SSW 12.7 mph 21.9 mph N/A   Overcast
3:35 PM 73.4 °F 51.8 °F 47% 29.90 in 10.0 mi SSW 12.7 mph 17.3 mph N/A   Overcast
3:55 PM 73.4 °F 51.8 °F 47% 29.89 in 10.0 mi South 8.1 mph 17.3 mph N/A   Overcast
4:15 PM 75.2 °F 51.8 °F 44% 29.89 in 10.0 mi SSW 9.2 mph 19.6 mph N/A   Overcast
4:35 PM 77.0 °F 53.6 °F 44% 29.88 in 10.0 mi SSW 9.2 mph 17.3 mph N/A   Overcast
4:55 PM 77.0 °F 53.6 °F 44% 29.88 in 10.0 mi South 16.1 mph 23.0 mph N/A   Mostly Cloudy
5:15 PM 77.0 °F 53.6 °F 44% 29.87 in 10.0 mi SW 9.2 mph 18.4 mph N/A   Partly Cloudy
5:35 PM 78.8 °F 53.6 °F 42% 29.87 in 10.0 mi South 10.4 mph 16.1 mph N/A   Scattered Clouds
5:55 PM 77.0 °F 53.6 °F 44% 29.87 in 10.0 mi South 6.9 mph - N/A   Clear
6:15 PM 77.0 °F 51.8 °F 41% 29.88 in 10.0 mi South 10.4 mph 16.1 mph N/A   Clear
6:35 PM 75.2 °F 51.8 °F 44% 29.88 in 10.0 mi South 8.1 mph - N/A   Clear
6:55 PM 75.2 °F 51.8 °F 44% 29.88 in 9.0 mi South 6.9 mph - N/A   Clear
7:15 PM 73.4 °F 51.8 °F 47% 29.88 in 10.0 mi South 4.6 mph - N/A   Clear
7:35 PM 73.4 °F 50.0 °F 44% 29.89 in 10.0 mi South 5.8 mph - N/A   Clear
7:55 PM 71.6 °F 50.0 °F 46% 29.90 in 10.0 mi South 5.8 mph - N/A   Clear
8:15 PM 71.6 °F 48.2 °F 43% 29.90 in 10.0 mi South 4.6 mph - N/A   Clear
8:35 PM 71.6 °F 48.2 °F 43% 29.91 in 10.0 mi South 5.8 mph - N/A   Clear
8:55 PM 69.8 °F 48.2 °F 46% 29.91 in 10.0 mi South 5.8 mph - N/A   Clear
9:15 PM 68.0 °F 48.2 °F 49% 29.93 in 10.0 mi SE 3.5 mph - N/A   Clear
9:35 PM 68.0 °F 48.2 °F 49% 29.93 in 10.0 mi Calm Calm - N/A   Clear
9:55 PM 66.2 °F 48.2 °F 52% 29.93 in 10.0 mi Calm Calm - N/A   Clear
10:15 PM 66.2 °F 48.2 °F 52% 29.94 in 10.0 mi ESE 4.6 mph - N/A   Clear
10:35 PM 64.4 °F 48.2 °F 56% 29.94 in 10.0 mi ESE 4.6 mph - N/A   Clear
10:55 PM 64.4 °F 48.2 °F 56% 29.93 in 10.0 mi SE 4.6 mph - N/A   Clear
11:15 PM 64.4 °F 48.2 °F 56% 29.93 in 10.0 mi SE 4.6 mph - N/A   Clear
11:35 PM 64.4 °F 48.2 °F 56% 29.93 in 10.0 mi ESE 4.6 mph - N/A   Clear
11:55 PM 64.4 °F 48.2 °F 56% 29.93 in 10.0 mi SE 6.9 mph - N/A   Clear